sat.trackr.live / text

‹ back to catalog

STARLINK-32834

NORAD 62875 · 2025-022X

PAYLOAD ACTIVE UNKNOWN

§ Identity

Operator
Country
US
Launch date
2025-02-01
Launch site
AFWTR
Launch vehicle
Mass (kg)
RCS (m²)

Purposes: comms

External: N2YO · Heavens-Above · Gunter

§ Orbital elements

Epoch: 2026-09-20T19:52:38.853408Z

Period
93.85 min
Inclination
53.1606°
Eccentricity
0.0001402
Mean motion
15.34423434 rev/d
Perigee alt
461.7 km
Apogee alt
463.6 km
Semi-major
6,840.8 km
B*
5.6468e-4
RAAN
299.8905°
Arg perigee
79.2504°
Mean anomaly
280.8656°
Rev number
9,182

§ Raw data

STARLINK-328341 62875U 25022X   26263.82822747  .00018764  00000+0  56468-3 0  99952 62875  53.1606 299.8905 0001402  79.2504 280.8656 15.34423434 91825

JSON: /api/v1/satellites/62875 · /tle

For live sub-satellite position, see the globe view (requires WebGL).

§ Visibility from observer

Set your observer location to see the next 7 days of passes ≥ 10°. The values pass through the URL so the page stays shareable.

No JS? Fill the form by hand. The geolocation button needs JavaScript.